Bridgeport, CT

5:32 PM EDT on October 18, 2017 (GMT -0400)
Sikorsky Memorial

Weather History for KBDR - June, 2013

Change the Weather History Date:

Sunday, June 30, 2013

  Actual Average Record
Temperature  
Mean Temperature 74 °F 73 °F  
Max Temperature 78 °F 81 °F 94 °F (1959)
Min Temperature 70 °F 64 °F 51 °F (1988)
Degree Days  
Heating Degree Days 0 0  
Month to date heating degree days 18 30  
Since 1 June heating degree days 18 32  
Since 1 July heating degree days 5094 5392  
Cooling Degree Days 9 8  
Month to date cooling degree days 175 143  
Year to date cooling degree days 213 167  
Since 1 June cooling degree days 175 143  
Growing Degree Days 24 (Base 50)    
Moisture  
Dew Point 71 °F    
Average Humidity 90    
Maximum Humidity 97    
Minimum Humidity 82    
Precipitation  
Precipitation T in 0.10 in 2.03 in (1972)
Month to date precipitation 9.48 3.61  
Year to date precipitation 23.08 21.48  
Snow  
Snow 0.00 in 0.00 in 0.00 in (2002)
Month to date snowfall 0.0 0.0  
Since 1 July snowfall 64.3 27.6  
Snow Depth 0.00 in    
Sea Level Pressure  
Sea Level Pressure 29.85 in    
Wind  
Wind Speed 5 mph (SE)    
Max Wind Speed 8 mph    
Max Gust Speed 10 mph    
Visibility 7 miles    
Events Rain    
T = Trace of Precipitation, MM = Missing Value Source: NWS Daily Summary

Daily Weather History Graph

Daily Weather History Graph

Search for Another Location

Airport or City:

Trip Planner

Search our weather history database for the weather conditions in past years. The results will help you decide how hot, cold, wet, or windy it might be!

Date:

Astronomy

Jun. 30, 2013 Rise Set
Actual Time 5:23 AM EDT 8:29 PM EDT
Civil Twilight 4:49 AM EDT 9:02 PM EDT
Nautical Twilight 4:06 AM EDT 9:45 PM EDT
Astronomical Twilight 3:15 AM EDT 10:36 PM EDT
Moon 12:23 AM EDT (6/30) 1:38 PM EDT (6/30)
Length of Visible Light 16h 13m
Length of Day
15h 05m
Last Quarter, 45% of the Moon is Illuminated
Jun 30
Last Quarter
Jul 8
New
Jul 15
First Quarter
Jul 22
Full
Jul 29
Last Quarter

Hourly Weather History & Observations

Time (EDT) Temp. Dew Point Humidity Pressure Visibility Wind Dir Wind Speed Gust Speed Precip Events Conditions
12:52 AM 72.0 °F 69.1 °F 91% 29.72 in 9.0 mi South 4.6 mph - N/A   Partly Cloudy
1:52 AM 72.0 °F 69.1 °F 91% 29.73 in 8.0 mi South 6.9 mph - N/A   Clear
2:52 AM 71.1 °F 69.1 °F 93% 29.74 in 9.0 mi South 4.6 mph - N/A   Clear
3:52 AM 71.1 °F 68.0 °F 90% 29.73 in 8.0 mi SSW 3.5 mph - N/A   Clear
4:52 AM 70.0 °F 68.0 °F 93% 29.75 in 7.0 mi South 4.6 mph - N/A   Clear
5:52 AM 70.0 °F 68.0 °F 93% 29.77 in 7.0 mi Calm Calm - N/A   Clear
6:24 AM 71.6 °F 69.8 °F 94% 29.79 in 7.0 mi Calm Calm - N/A   Scattered Clouds
6:52 AM 72.0 °F 70.0 °F 93% 29.80 in 8.0 mi Calm Calm - N/A   Partly Cloudy
7:18 AM 71.6 °F 69.8 °F 94% 29.81 in 8.0 mi SSE 4.6 mph - N/A   Mostly Cloudy
7:49 AM 71.6 °F 69.8 °F 94% 29.83 in 4.0 mi SSE 3.5 mph - N/A   Overcast
7:52 AM 71.1 °F 69.1 °F 93% 29.83 in 4.0 mi South 3.5 mph - N/A   Overcast
8:10 AM 71.6 °F 69.8 °F 94% 29.83 in 2.5 mi SE 3.5 mph - N/A   Overcast
8:50 AM 71.6 °F 69.8 °F 94% 29.84 in 3.0 mi Calm Calm - N/A   Overcast
8:52 AM 72.0 °F 70.0 °F 93% 29.84 in 3.0 mi Calm Calm - N/A   Overcast
9:52 AM 73.9 °F 71.1 °F 91% 29.84 in 4.0 mi ENE 3.5 mph - N/A   Overcast
10:11 AM 73.4 °F 71.6 °F 94% 29.84 in 5.0 mi East 5.8 mph - N/A   Overcast
10:52 AM 75.0 °F 71.1 °F 87% 29.85 in 4.0 mi ENE 8.1 mph - N/A   Overcast
11:05 AM 75.2 °F 71.6 °F 89% 29.85 in 4.0 mi ENE 6.9 mph - N/A   Haze
11:14 AM 75.2 °F 71.6 °F 89% 29.85 in 5.0 mi East 8.1 mph - N/A   Partly Cloudy
11:52 AM 77.0 °F 72.0 °F 84% 29.85 in 7.0 mi East 8.1 mph - N/A   Clear
12:52 PM 77.0 °F 72.0 °F 84% 29.85 in 7.0 mi East 11.5 mph - N/A   Mostly Cloudy
1:07 PM 77.0 °F 71.6 °F 83% 29.85 in 7.0 mi East 12.7 mph - N/A   Overcast
1:41 PM 77.0 °F 71.6 °F 83% 29.85 in 6.0 mi South 10.4 mph - N/A   Haze
1:52 PM 77.0 °F 72.0 °F 84% 29.85 in 6.0 mi SSE 10.4 mph - N/A   Haze
1:59 PM 75.2 °F 71.6 °F 89% 29.85 in 6.0 mi SSE 10.4 mph - N/A   Overcast
2:52 PM 73.9 °F 71.1 °F 91% 29.86 in 4.0 mi South 8.1 mph - N/A   Overcast
3:06 PM 73.4 °F 71.6 °F 94% 29.86 in 5.0 mi SSE 6.9 mph - N/A   Overcast
3:23 PM 75.2 °F 71.6 °F 89% 29.85 in 7.0 mi SSE 9.2 mph - N/A   Overcast
3:52 PM 73.9 °F 71.1 °F 91% 29.86 in 7.0 mi South 9.2 mph - N/A   Overcast
4:52 PM 73.9 °F 71.1 °F 91% 29.87 in 7.0 mi South 8.1 mph - N/A   Overcast
5:52 PM 73.0 °F 71.1 °F 93% 29.87 in 6.0 mi SE 3.5 mph - 0.00 in Rain Light Rain
6:47 PM 73.4 °F 71.6 °F 94% 29.88 in 5.0 mi Calm Calm - 0.00 in   Overcast
6:52 PM 73.9 °F 72.0 °F 93% 29.88 in 5.0 mi SE 3.5 mph - 0.00 in   Overcast
7:35 PM 73.4 °F 71.6 °F 94% 29.89 in 6.0 mi East 5.8 mph - N/A   Overcast
7:45 PM 73.4 °F 71.6 °F 94% 29.89 in 7.0 mi East 4.6 mph - N/A   Overcast
7:52 PM 73.9 °F 71.1 °F 91% 29.89 in 7.0 mi East 4.6 mph - N/A   Overcast
8:52 PM 73.9 °F 71.1 °F 91% 29.89 in 10.0 mi ESE 3.5 mph - N/A   Overcast
9:23 PM 73.4 °F 71.6 °F 94% 29.91 in 10.0 mi SSE 5.8 mph - N/A   Overcast
9:32 PM 73.4 °F 71.6 °F 94% 29.91 in 10.0 mi South 5.8 mph - N/A   Overcast
9:52 PM 73.0 °F 71.1 °F 93% 29.93 in 10.0 mi South 6.9 mph - N/A   Overcast
10:19 PM 73.4 °F 71.6 °F 94% 29.93 in 10.0 mi South 5.8 mph - N/A   Overcast
10:37 PM 73.4 °F 71.6 °F 94% 29.92 in 10.0 mi South 3.5 mph - N/A   Overcast
10:52 PM 73.0 °F 71.1 °F 93% 29.93 in 10.0 mi South 5.8 mph - N/A   Mostly Cloudy
11:06 PM 73.4 °F 71.6 °F 94% 29.93 in 10.0 mi South 5.8 mph - N/A   Mostly Cloudy
11:52 PM 73.9 °F 71.1 °F 91% 29.94 in 10.0 mi South 5.8 mph - N/A   Unknown